Weather History for Lakeview AWS, OR

Change the Weather History Date:

Monday, May 13, 2013

  Actual Average Record
Temperature  
Mean Temperature 58 °F -  
Max Temperature 78 °F 66 °F 88 °F (1976)
Min Temperature 39 °F 36 °F 24 °F (1990)
Degree Days  
Heating Degree Days 6    
Growing Degree Days 8 (Base 50)    
Moisture  
Dew Point 37 °F    
Average Humidity 47    
Maximum Humidity 87    
Minimum Humidity 18    
Precipitation  
Precipitation 0.00 in - - ()
Sea Level Pressure  
Sea Level Pressure 30.15 in    
Wind  
Wind Speed 11 mph (SSW)    
Max Wind Speed 29 mph    
Max Gust Speed 39 mph    
Visibility 10 miles    
Events      
Averages and records for this station are not official NWS values.
T = Trace of Precipitation, MM = Missing Value Source: NWS Daily Summary

Daily Weather History Graph

Daily Weather History Graph

Search for Another Location

Airport:

Trip Planner

Search our weather history database for the weather conditions in past years. The results will help you decide how hot, cold, wet, or windy it might be!

Date:

Astronomy

May. 13, 2013 Rise Set
Actual Time 5:42 AM PDT 8:14 PM PDT
Civil Twilight 5:10 AM PDT 8:46 PM PDT
Nautical Twilight 4:30 AM PDT 9:25 PM PDT
Astronomical Twilight 3:46 AM PDT 10:10 PM PDT
Moon 8:32 AM PDT (5/13) 11:26 PM PDT (5/13)
Length of Visible Light 15h 35m
Length of Day
14h 31m
Waxing Crescent, 13% of the Moon is Illuminated
May 13
Waxing Crescent
May 17
First Quarter
May 24
Full
May 31
Last Quarter
Jun 8
New

Hourly Weather History & Observations

Time (PDT) Temp. Windchill Dew Point Humidity Pressure Visibility Wind Dir Wind Speed Gust Speed Precip Events Conditions
12:15 AM 55.4 °F - 42.8 °F 63% 30.19 in 10.0 mi SSE 5.8 mph - N/A   Clear
12:35 AM 53.6 °F - 39.2 °F 58% 30.19 in 10.0 mi SE 8.1 mph - N/A   Clear
12:55 AM 53.6 °F - 39.2 °F 58% 30.18 in 10.0 mi SE 6.9 mph - N/A   Clear
1:15 AM 50.0 °F - 39.2 °F 66% 30.18 in 10.0 mi SE 9.2 mph - N/A   Clear
1:35 AM 51.8 °F - 41.0 °F 67% 30.17 in 10.0 mi SE 10.4 mph - N/A   Clear
1:55 AM 51.8 °F - 39.2 °F 62% 30.17 in 10.0 mi SE 10.4 mph - N/A   Clear
2:15 AM 53.6 °F - 37.4 °F 54% 30.17 in 10.0 mi SE 12.7 mph - N/A   Clear
2:35 AM 53.6 °F - 37.4 °F 54% 30.16 in 10.0 mi SSE 10.4 mph - N/A   Clear
2:55 AM 53.6 °F - 37.4 °F 54% 30.16 in 10.0 mi SSE 6.9 mph - N/A   Clear
3:15 AM 51.8 °F - 37.4 °F 58% 30.16 in 10.0 mi SE 6.9 mph - N/A   Clear
3:35 AM 46.4 °F 42.4 °F 37.4 °F 71% 30.16 in 10.0 mi SE 8.1 mph - N/A   Clear
3:55 AM 46.4 °F 44.3 °F 35.6 °F 66% 30.16 in 10.0 mi WSW 4.6 mph - N/A   Clear
4:15 AM 48.2 °F - 35.6 °F 62% 30.15 in 10.0 mi SSW 3.5 mph - N/A   Clear
4:35 AM 48.2 °F - 33.8 °F 58% 30.15 in 10.0 mi South 4.6 mph - N/A   Clear
4:55 AM 42.8 °F 41.1 °F 33.8 °F 70% 30.16 in 10.0 mi North 3.5 mph - N/A   Clear
5:15 AM 41.0 °F 38.0 °F 33.8 °F 76% 30.16 in 10.0 mi NNW 4.6 mph - N/A   Clear
5:35 AM 39.2 °F 35.9 °F 33.8 °F 81% 30.16 in 10.0 mi NNW 4.6 mph - N/A   Clear
5:55 AM 39.2 °F 34.2 °F 33.8 °F 81% 30.17 in 10.0 mi NNW 6.9 mph - N/A   Clear
6:15 AM 39.2 °F 34.2 °F 35.6 °F 87% 30.17 in 10.0 mi NNW 6.9 mph - N/A   Clear
6:35 AM 42.8 °F 41.1 °F 37.4 °F 81% 30.17 in 10.0 mi NNE 3.5 mph - N/A   Clear
6:55 AM 46.4 °F - 37.4 °F 71% 30.18 in 10.0 mi Calm Calm - N/A   Clear
7:15 AM 50.0 °F - 39.2 °F 66% 30.18 in 10.0 mi Calm Calm - N/A   Clear
7:35 AM 55.4 °F - 42.8 °F 63% 30.18 in 10.0 mi SSE 5.8 mph - N/A   Clear
7:55 AM 60.8 °F - 39.2 °F 45% 30.17 in 10.0 mi SSE 9.2 mph - N/A   Clear
8:15 AM 62.6 °F - 37.4 °F 39% 30.17 in 10.0 mi SSE 12.7 mph - N/A   Clear
8:35 AM 62.6 °F - 35.6 °F 37% 30.17 in 10.0 mi SSE 15.0 mph 19.6 mph N/A   Clear
8:55 AM 64.4 °F - 33.8 °F 32% 30.17 in 10.0 mi South 12.7 mph - N/A   Clear
9:15 AM 66.2 °F - 35.6 °F 32% 30.16 in 10.0 mi South 13.8 mph - N/A   Clear
9:35 AM 66.2 °F - 37.4 °F 35% 30.16 in 10.0 mi SSE 13.8 mph - N/A   Clear
9:55 AM 69.8 °F - 37.4 °F 31% 30.15 in 10.0 mi SSE 15.0 mph - N/A   Clear
10:15 AM 69.8 °F - 35.6 °F 28% 30.15 in 10.0 mi SSE 13.8 mph - N/A   Clear
10:35 AM 71.6 °F - 33.8 °F 25% 30.15 in 10.0 mi SSE 19.6 mph 24.2 mph N/A   Clear
10:55 AM 71.6 °F - 33.8 °F 25% 30.14 in 10.0 mi South 19.6 mph 25.3 mph N/A   Clear
11:15 AM 73.4 °F - 33.8 °F 23% 30.15 in 10.0 mi South 17.3 mph 21.9 mph N/A   Clear
11:35 AM 73.4 °F - 33.8 °F 23% 30.14 in 10.0 mi SSE 19.6 mph 25.3 mph N/A   Clear
11:55 AM 73.4 °F - 37.4 °F 27% 30.13 in 10.0 mi SSE 21.9 mph 26.5 mph N/A   Clear
12:15 PM 75.2 °F - 35.6 °F 24% 30.13 in 10.0 mi South 20.7 mph 26.5 mph N/A   Clear
12:35 PM 75.2 °F - 35.6 °F 24% 30.13 in 10.0 mi SSW 24.2 mph 31.1 mph N/A   Clear
1:35 PM 78.8 °F - 35.6 °F 21% 30.12 in 10.0 mi SSW 28.8 mph 39.1 mph N/A   Clear
1:55 PM 78.8 °F - 33.8 °F 20% 30.12 in 10.0 mi SW 28.8 mph 36.8 mph N/A   Clear
2:15 PM 78.8 °F - 32.0 °F 18% 30.12 in 10.0 mi WSW 25.3 mph 38.0 mph N/A   Clear
2:35 PM 78.8 °F - 33.8 °F 20% 30.12 in 10.0 mi SW 28.8 mph 35.7 mph N/A   Clear
2:55 PM 78.8 °F - 33.8 °F 20% 30.11 in 10.0 mi SSW 26.5 mph 33.4 mph N/A   Clear
3:15 PM 78.8 °F - 33.8 °F 20% 30.10 in 10.0 mi SW 19.6 mph 34.5 mph N/A   Clear
3:35 PM 78.8 °F - 35.6 °F 21% 30.10 in 10.0 mi SSW 25.3 mph 31.1 mph N/A   Clear
3:55 PM 78.8 °F - 35.6 °F 21% 30.09 in 10.0 mi SSW 24.2 mph 27.6 mph N/A   Clear
4:35 PM 77.0 °F - 35.6 °F 22% 30.08 in 10.0 mi SSW 27.6 mph 33.4 mph N/A   Clear
5:15 PM 75.2 °F - 35.6 °F 24% 30.08 in 10.0 mi SW 23.0 mph 34.5 mph N/A   Clear
5:35 PM 73.4 °F - 39.2 °F 29% 30.09 in 10.0 mi West 16.1 mph 26.5 mph N/A   Clear
5:55 PM 73.4 °F - 42.8 °F 33% 30.09 in 10.0 mi WNW 19.6 mph - N/A   Clear
6:15 PM 69.8 °F - 42.8 °F 38% 30.10 in 10.0 mi WNW 18.4 mph 26.5 mph N/A   Clear
6:35 PM 68.0 °F - 42.8 °F 40% 30.11 in 10.0 mi West 16.1 mph 20.7 mph N/A   Clear
6:55 PM 66.2 °F - 42.8 °F 43% 30.12 in 10.0 mi West 15.0 mph - N/A   Clear
7:15 PM 64.4 °F - 41.0 °F 42% 30.12 in 10.0 mi West 11.5 mph - N/A   Clear
7:35 PM 62.6 °F - 41.0 °F 45% 30.13 in 10.0 mi West 6.9 mph - N/A   Clear
7:55 PM 62.6 °F - 39.2 °F 42% 30.13 in 10.0 mi WSW 12.7 mph - N/A   Clear
8:15 PM 60.8 °F - 39.2 °F 45% 30.14 in 10.0 mi WSW 5.8 mph - N/A   Clear
8:35 PM 57.2 °F - 39.2 °F 51% 30.14 in 10.0 mi WSW 8.1 mph - N/A   Clear
8:55 PM 57.2 °F - 39.2 °F 51% 30.15 in 10.0 mi West 8.1 mph - N/A   Clear
9:15 PM 55.4 °F - 39.2 °F 54% 30.16 in 10.0 mi West 4.6 mph - N/A   Clear
9:35 PM 53.6 °F - 39.2 °F 58% 30.16 in 10.0 mi WNW 5.8 mph - N/A   Clear
9:55 PM 51.8 °F - 39.2 °F 62% 30.16 in 10.0 mi NW 5.8 mph - N/A   Clear
10:15 PM 51.8 °F - 39.2 °F 62% 30.17 in 10.0 mi WNW 9.2 mph - N/A   Clear
10:35 PM 51.8 °F - 39.2 °F 62% 30.17 in 10.0 mi West 6.9 mph - N/A   Clear
10:55 PM 51.8 °F - 41.0 °F 67% 30.17 in 10.0 mi Calm Calm - N/A   Clear
11:15 PM 50.0 °F - 39.2 °F 66% 30.16 in 10.0 mi Calm Calm - N/A   Clear
11:35 PM 48.2 °F - 39.2 °F 71% 30.16 in 10.0 mi East 4.6 mph - N/A   Clear
11:55 PM 48.2 °F - 39.2 °F 71% 30.16 in 10.0 mi SE 4.6 mph - N/A   Clear